Location: *
(48.8489°N, 2.3218°E)
Time: 14:14:37
(UTC+00:00)

Cosmos 1898 Rocket - Pass Details

Date: 23 August 2019
Orbit: 755 x 783 km, 74.0° (Epoch: 19 September)

Event Time Altitude Azimuth Distance (km) Brightness Sun altitude
Rises 20:40:55 0° 203° (SSW) 3,238 6.6 -16.4°
Reaches altitude 10° 20:43:18 10° 204° (SSW) 2,311 5.8 -16.7°
Maximum altitude 20:48:33 85° 291° (WNW) 777 3.5 -17.4°
Drops below altitude 10° 20:53:49 10° 22° (NNE) 2,308 6.2 -18.0°
Sets 20:56:11 0° 23° (NNE) 3,234 7.0 -18.3°
